Overview Statistics Trail Chart Weather Telemetry Raw packets
 

This is the latest recevied weather packets stored in our database for station/object F4MZI-13. If no packets are shown the sender has not sent any weather packets the latest 10 day(s).

<< 4 5 6 7 8 9 10 >>
Time Temp. Humidity Pressure Rain* Wind** Luminosity Snow
1788614873 22.22° C 68% 1024 hPa 0 mm - - -
1788614272 22.22° C 68% 1024 hPa 0 mm - - -
1788613672 22.22° C 68% 1024 hPa 0 mm - - -
1788613072 22.78° C 68% 1024 hPa 0 mm - - -
1788612472 22.78° C 66% 1024 hPa 0 mm - - -
1788611872 22.22° C 63% 1024 hPa 0 mm - - -
1788611272 22.22° C 63% 1024 hPa 0 mm - - -
1788610672 22.22° C 63% 1024 hPa 0 mm - - -
1788610071 21.67° C 58% 1024 hPa 0 mm - - -
1788609471 21.67° C 58% 1024 hPa 0 mm - - -
1788608871 21.67° C 58% 1024 hPa 0 mm - - -
1788608271 21.67° C 58% 1024 hPa 0 mm - - -
1788607671 21.67° C 58% 1024 hPa 0 mm - - -
1788607071 21.67° C 58% 1024 hPa 0 mm - - -
1788606470 21.67° C 58% 1024 hPa 0 mm - - -
1788605870 21.67° C 58% 1024 hPa 0 mm - - -
1788605270 21.67° C 58% 1024 hPa 0 mm - - -
1788604670 19.44° C 65% 1023 hPa 0 mm - - -
1788604070 19.44° C 65% 1023 hPa 0 mm - - -
1788603470 19.44° C 65% 1023 hPa 0 mm - - -
1788602869 19.44° C 65% 1023 hPa 0 mm - - -
1788602269 19.44° C 65% 1023 hPa 0 mm - - -
1788601669 19.44° C 65% 1023 hPa 0 mm - - -
1788601069 19.44° C 65% 1023 hPa 0 mm - - -
1788600469 17.22° C 80% 1023 hPa 0 mm - - -

* Rain latest hour (hover to see other rain measurements)
** Current wind speed in m/s (hover to see current wind gust speed)